Tracking 25949 objects as of 9-Aug-2022
HD Live streaming from Space Station
objects crossing your sky now

STARLINK-4056

Track STARLINK-4056 now!
10-day predictions
STARLINK-4056 is classified as:


NORAD ID: 53242
Int'l Code: 2022-086A
Perigee: 351.6 km
Apogee: 362.5 km
Inclination: 53.2 °
Period: 91.5 minutes
Semi major axis: 6728 km
RCS: Unknown
Launch date: July 24, 2022
Source: United States (US)
Launch site: AIR FORCE EASTERN TEST RANGE (AFETR)
aabbcc
Your satellite tracking list
Your tracking list is empty




NASA's NSSDC Master Catalog

Two Line Element Set (TLE):
1 53242U 22086A   22221.16667824  .00057127  00000-0  40901-3 0  9992
2 53242  53.2194 325.9819 0008150 282.6218  65.6120 15.73141686  3085
Source of the keplerian elements: AFSPC